Regional Weather Roundup
Issued by NWS

Home | Current Version | Previous Version | Graphics & Text | Print | Product List | Glossary On
Versions: 1 2 3 4 5 6 7 8 9 10 11 12 13 14 15 16 17 18 19 20 21 22 23 24 25 26 27 28 29 30 31 32 33 34 35 36 37 38 39 40 41 42 43 44 45 46 47 48 49 50
000
ASUS43 KDMX 231307
RWRIA

WEATHER ROUNDUP FOR IOWA
NATIONAL WEATHER SERVICE DES MOINES IA
800 AM CDT TUE SEP 23 2014

NOTE: "FAIR" INDICATES FEW OR NO CLOUDS BELOW 12,000 FEET WITH NO
SIGNIFICANT WEATHER AND/OR OBSTRUCTIONS TO VISIBILITY.

* - THESE STATIONS ARE NOT NWS STATIONS...THUS NOT UNDER NWS
QUALITY CONTROL.  THEY ALSO DO NOT REPORT WEATHER SUCH
AS PRECIPITATION OR FOG.

IAZ001>003-012>014-020>022-031>034-043>046-231400-
   NORTHWEST IOWA

CITY           SKY/WX    TMP DP  RH WIND       PRES   REMARKS
CARROLL *      PTCLDY    52  52 100 SE5       30.22R
CHEROKEE *     CLOUDY    55  54  94 S3        30.19S
DENISON *      CLEAR     57  54  88 S9        30.18S
LE MARS *      LGT RAIN  57  55  94 SE7       30.17S
ORANGE CITY *  LGT RAIN  57  52  82 S7        30.17S
SHELDON *      CLOUDY    54  52  94 S7        30.17R
SIOUX CITY     CLOUDY    57  55  93 SE7       30.16S
SPENCER        CLOUDY    54  50  86 SE7       30.19R
STORM LAKE *   CLEAR     54  54 100 S7        30.20R
$$

IAZ055>058-069>071-079>083-090>094-231400-
   SOUTHWEST IOWA

CITY           SKY/WX    TMP DP  RH WIND       PRES   REMARKS
ATLANTIC *     CLEAR     57  52  82 S8        30.22S HAZE
AUDUBON *      CLEAR     54  48  82 CALM      30.23S
CLARINDA *     CLEAR     57  54  88 SE5       30.24S
COUNCIL BLFS * CLEAR     57  55  94 SE6       30.18S
CRESTON *      CLEAR     54  52  94 SE6       30.26R
HARLAN  *      CLEAR     57  54  88 SE6       30.24S
LAMONI         CLOUDY    53  49  86 S6        30.27R
RED OAK *      CLOUDY    57  54  88 S6        30.22S
SHENANDOAH *   CLEAR     57  54  88 SE7       30.22S
$$

IAZ047>049-059>061-072>074-084-231400-
   CENTRAL IOWA

CITY           SKY/WX    TMP DP  RH WIND       PRES   REMARKS
AMES           PTCLDY    49  48  97 CALM      30.25R
ANKENY *       CLEAR     50  50 100 CALM      30.26R
CHARITON *     SUNNY     54  50  87 S7        30.27R
DES MOINES     MOCLDY    55  49  80 S6        30.25R
GRINNELL*      MOSUNNY   50  48  93 E3        30.27S
KNOXVILLE *    MOSUNNY   54  48  82 S6        30.25R
MARSHALLTOWN   MOSUNNY   50  48  93 E7        30.26R
PELLA *        MOSUNNY   52  50  93 SE5       30.28R
PERRY *          N/A     50  50 100 SE5       30.24R
$$

IAZ004>006-015-016-023>025-035-036-231400-
   NORTH CENTRAL IOWA

CITY           SKY/WX    TMP DP  RH WIND       PRES   REMARKS
ALGONA *       CLEAR     54  50  87 S6        30.23R
CLARION *        N/A     54  50  87 SE6       30.24R
ESTHERVILLE    MOCLDY    49  48  97 S8        30.20R
FORT DODGE *   CLOUDY    54  48  82 S5        30.24R
MASON CITY     PTCLDY    48  47  96 CALM      30.26R
FOREST CITY *  CLEAR     50  50 100 CALM      30.24R
IOWA FALLS *     N/A     50  48  93 SE5       30.26S
$$

IAZ007>011-017>019-026>030-037>042-050>054-066-231400-
   NORTHEAST IOWA

CITY           SKY/WX    TMP DP  RH WIND       PRES   REMARKS
CEDAR RAPIDS   SUNNY     49  48  97 SE6       30.29R
CHARLES CITY * SUNNY     50  48  93 SE6       30.27S
CLINTON *      SUNNY     46  45  93 CALM      30.34R
DECORAH *      SUNNY     50  48  93 CALM      30.27S
DUBUQUE        SUNNY     49  46  90 CALM      30.30R
MONTICELLO *   SUNNY     46  46 100 CALM      30.30R
OELWEIN *      SUNNY     50  48  93 SE7       30.29R
WATERLOO       SUNNY     49  47  93 SE5       30.27R
$$

IAZ064-065-067-068-078-231400-
   EAST CENTRAL IOWA

CITY           SKY/WX    TMP DP  RH WIND       PRES   REMARKS
DAVENPORT      SUNNY     50  45  83 S5        30.31R
IOWA CITY      SUNNY     49  48  97 CALM      30.31R
MT. PLEASANT * MOSUNNY   52  48  87 SE3       30.30S
MUSCATINE *    SUNNY     46  46 100 CALM      30.32R
QUAD CITIES    SUNNY     49  46  90 CALM      30.31R
$$

IAZ062-063-075>077-085>089-095>099-231400-
   SOUTHEAST IOWA

CITY           SKY/WX    TMP DP  RH WIND       PRES   REMARKS
BURLINGTON     SUNNY     54  47  77 CALM      30.31R
FAIRFIELD *    SUNNY     52  48  87 S3        30.30R
FORT MADISON * SUNNY     57  46  67 CALM      30.31R
KEOKUK *       SUNNY     54  48  82 CALM      30.29S
OSKALOOSA *      N/A     50  48  93 SE3       30.28R
CENTERVILLE *  SUNNY     50  50 100 S3        30.29R
OTTUMWA        MOSUNNY   51  47  86 SE3       30.27S
WASHINGTON *   SUNNY     50  48  93 CALM      30.30R
$$

ABBREVIATIONS USED IN REMARKS
   TC - TEMPERATURES IN CELSIUS
  WCI - WIND CHILL INDEX
   HX - HEAT INDEX
  VSB - VISIBILITY
$$




USA.gov is the U.S. government's official web portal to all federal, state and local government web resources and services.